Overview Statistics Trail Chart Weather Telemetry Raw packets
 

This is the latest recevied weather packets stored in our database for station/object NW5W-12. If no packets are shown the sender has not sent any weather packets the latest 10 day(s).

<< 84 85 86 87 88 89 90 >>
Time Temp. Humidity Pressure Rain* Wind** Luminosity Snow
1788085140 12.78° C 84% 1019.1 hPa 1.02 mm - - -
1788084840 13.33° C 84% 1019.2 hPa 1.02 mm - - -
1788084539 13.89° C 81% 1019.2 hPa 1.02 mm - - -
1788084239 13.89° C 76% 1019 hPa 1.02 mm - - -
1788083939 13.89° C 77% 1019 hPa 1.02 mm - - -
1788083639 13.89° C 76% 1019 hPa 1.02 mm - - -
1788083339 13.89° C 76% 1019 hPa 1.02 mm - - -
1788083040 13.89° C 77% 1018.9 hPa 1.02 mm - - -
1788082739 13.89° C 78% 1019 hPa 1.02 mm - - -
1788082439 13.89° C 77% 1019.1 hPa 1.02 mm - - -
1788082140 12.78° C 81% 1019.2 hPa 1.02 mm - - -
1788081839 12.22° C 86% 1019.4 hPa 1.02 mm - - -
1788081539 12.22° C 89% 1019.5 hPa 1.02 mm - - -
1788081240 12.22° C 90% 1019.5 hPa 1.02 mm - - -
1788080940 12.22° C 89% 1019.2 hPa 1.02 mm - - -
1788080640 12.22° C 90% 1018.9 hPa 1.02 mm - - -
1788080340 12.78° C 88% 1019.1 hPa 1.02 mm - - -
1788080040 12.78° C 86% 1019.2 hPa 1.02 mm - - -
1788079739 12.78° C 84% 1019.3 hPa 1.02 mm - - -
1788079440 12.78° C 84% 1019.5 hPa 0.76 mm - - -
1788079140 12.78° C 84% 1019.3 hPa 0.76 mm - - -
1788078840 12.78° C 85% 1019.2 hPa 0.76 mm - - -
1788078540 12.78° C 89% 1019.1 hPa 0.76 mm - - -
1788078239 12.22° C 93% 1019.2 hPa 0.76 mm - - -
1788077940 12.78° C 96% 1019.3 hPa 0.76 mm - - -

* Rain since midnight (hover to see other rain measurements)
** Current wind speed in m/s (hover to see current wind gust speed)